Location: Kuffner-Sternwarte
(48.2130°N, 16.2960°E)
Time: 15:16:02
(UTC+02:00)

XW-2A - Visible Passes

Search period start: 20 June 2019 00:00
Search period end: 30 June 2019 00:00
Orbit: 430 x 451 km, 97.3° (Epoch: 20 June)

Date Brightness Start Highest point End Pass type
(mag) Time Alt. Az. Time Alt. Az. Time Alt. Az.
21 Jun ? 21:39:59 10° SW 21:42:18 18° W 21:44:39 10° NW visible
23 Jun ? 21:58:18 10° WSW 21:59:25 11° W 22:00:32 10° WNW visible
28 Jun ? 21:53:57 10° WSW 21:55:28 13° W 21:56:59 10° WNW visible
